Skip Page Navigation
NASA JPL Caltech
NASA Logo - Jet Propulsion Laboratory + View the NASA Portal
+ Near-Earth Object (NEO) Program
Search JPL
JPL Home Earth Solar System Stars & Galaxies Technology
JPL Solar System Dynamics
BODIES ORBITS EPHEMERIDES TOOLS PHYSICAL DATA DISCOVERY FAQ SITE MAP
JPL Small-Body Database Browser
Search: [ help ]  
(2006 TB)
Classification: Amor [NEO, PHA]          SPK-ID: 3347500
Ephemeris | Orbit Diagram | Orbital Elements | Physical Parameters | Close-Approach Data ]

[ hide orbit diagram ]
Orbit Diagram
Note: Make sure you have Java enabled on your browser to see the applet. This applet is provided as a 3D orbit visualization tool. The applet was implemented using 2-body methods, and hence should not be used for determining accurate long-term trajectories (over several years or decades) or planetary encounter circumstances. For accurate long-term ephemerides, please instead use our Horizons system.
Orbit Viewer

Additional Notes: the orbits shown in the applet are color coded. The planets are white lines, and the asteroid/comet is a blue line. The bright white line indicates the portion of the orbit that is above the ecliptic plane, and the darker portion is below the ecliptic plane. Likewise for the asteroid/comet orbit, the light blue indicates the portion above the ecliptic plane, and the dark blue the portion below the ecliptic plane.

Orbit Viewer applet originally written and kindly provided by Osamu Ajiki (AstroArts), and further modified by Ron Baalke (JPL).


Orbital Elements at Epoch 2456400.5 (2013-Apr-18.0) TDB
Reference: JPL 14 (heliocentric ecliptic J2000)
 Element Value Uncertainty (1-sigma)   Units 
e .3245013447133241 2.131e-07  
a 1.561796142661484 4.4523e-08 AU
q 1.05499119419975 3.3102e-07 AU
i 27.56539960916615 6.9267e-05 deg
node 169.3462730805752 6.5826e-05 deg
peri 180.8954963122974 0.0001867 deg
M 132.9539626227822 0.00011406 deg
tp 2456137.210384253819
(2012-Jul-28.71038425)
0.000219 JED
period 712.9103924307069
1.95
3.0485e-05
8.346e-08
d
yr
n .5049722992149972 2.1593e-08 deg/d
Q 2.068601091123218 5.8971e-08 AU
  Orbit Determination Parameters
   # obs. used (total)      38  
   data-arc span      2121 days (5.81 yr)  
   first obs. used      2006-10-01  
   last obs. used      2012-07-22  
   planetary ephem.      DE405  
   SB-pert. ephem.      SB405-CPV-2  
   condition code      0  
   fit RMS      .51053  
   data source      ORB  
   producer      Otto Matic  
   solution date      2012-Sep-28 00:53:11  

Additional Information
 Earth MOID = .0487247 AU 
 T_jup = 4.250 
[ show covariance matrix ]

Ephemeris | Orbit Diagram | Orbital Elements | Physical Parameters | Close-Approach Data ]

Physical Parameter Table
Parameter Symbol Value Units Sigma Reference Notes
absolute magnitude H 20.033 mag .28934 14 autocmod 2.5b

[ show close-approach data ]
Ephemeris | Orbit Diagram | Orbital Elements | Physical Parameters | Close-Approach Data ]
ABOUT SSD CREDITS/AWARDS PRIVACY/COPYRIGHT GLOSSARY LINKS
FirstGov 2013-May-24 23:13 UT
(server date/time)  
NASA Home Page
Site Manager:   Donald K. Yeomans
Webmaster  Alan B. Chamberlin